User: anonymous   Login
Location: Unspecified
(0.0000°N, 0.0000°E)
Time: 03:49:10
(UTC+01:00)
Language:

Atlas Centaur 2 - Orbit

View from above orbital plane
View from above orbital plane
View from above satellite
View from above satellite

Ground track
Ground track

The orbit data is extracted from the following two-line orbital elements,

1 00694U 63047A   15062.51224669  .00004054  00000-0  52818-3 0  9998
2 00694 030.3588 084.2688 0593596 338.6026 185.6265 14.00680475565249
Epoch (UTC): 03 March 2015 12:17:38
Eccentricity: 0.0593596
inclination: 30.3588°
perigee height: 460 km
apogee height: 1323 km
right ascension of ascending node: 84.2688°
argument of perigee: 338.6026°
revolutions per day: 14.00680475
mean anomaly at epoch: 185.6265°
orbit number at epoch: 56524

The dashed part of the orbit path shows where the satellite is in the earth's shadow,  

DLR